Temp
19 21 20 18 17 17 17 17 17 17 17 17 17 16 16 16 16 16 15 15 15 15 15 15 15 15 15 15 15 16 16 16 16 16 16 16 16 16 16 15 13 13 14
19 21 20 18 17 17 17 17 17 16 16 16 16 16 16 16 15 15 15 15 15 15 15 15 15 15 15 15 15 16 16 15 15 16 15 15 15 15 15 15 15 15 14
18 18 19 18 17 17 17 17 17 16 16 16 15 15 15 15 15 15 15 14 14 14 14 14 15 14 14 14 15 15 15 15 15 14 13 13 15 15 15 15 15 15 15
18 17 18 18 17 17 17 17 17 16 16 15 15 15 14 15 14 14 15 15 15 14 14 14 14 14 14 14 15 15 14 14 14 13 14 13 13 14 14 14 14 14 14
19 17 17 18 18 17 17 16 16 16 15 14 14 14 14 14 14 15 15 15 15 15 14 14 14 14 14 14 14 14 14 14 13 13 13 13 13 14 14 14 13 13 14
19 18 17 18 17 17 17 16 16 16 15 14 14 14 15 16 15 16 15 15 14 15 14 14 14 14 14 14 14 14 14 13 13 13 13 13 13 13 13 13 13 13 13
19 18 17 17 17 17 17 16 16 15 14 14 14 14 17 16 16 16 15 15 14 14 14 14 13 14 14 14 14 14 13 13 13 13 13 13 13 13 13 13 13 13 13
19 17 17 17 17 16 16 16 15 14 14 14 14 15 17 16 16 16 14 14 13 14 14 14 13 14 14 14 14 14 13 13 13 13 13 13 13 13 12 13 13 13 13
18 16 16 16 16 16 15 15 15 14 14 14 14 14 16 16 16 16 15 13 13 14 14 13 13 14 14 14 14 14 13 13 13 12 13 12 13 12 12 12 13 13 13
17 17 16 15 15 15 15 14 14 14 14 14 14 14 15 16 16 16 16 15 13 12 12 13 13 14 14 14 14 13 13 13 12 12 12 12 12 12 12 13 13 13 13
17 18 16 16 15 16 16 15 14 14 14 14 14 13 15 15 16 16 15 15 13 14 13 13 14 14 14 14 14 13 13 12 13 12 12 12 12 12 12 12 13 13 12
16 18 18 17 17 17 16 15 14 14 14 13 13 14 13 13 14 14 15 15 15 14 14 14 14 14 14 13 13 13 13 12 12 12 12 12 12 12 12 12 12 12 12
16 16 17 18 17 17 16 15 15 15 14 14 14 14 13 14 13 14 15 15 15 14 14 14 14 14 13 12 12 12 12 13 12 12 12 12 12 12 11 12 12 12 12
16 16 17 16 17 17 16 15 16 15 15 15 15 14 14 13 13 13 13 14 13 14 12 13 12 12 12 12 12 12 12 12 12 11 11 12 11 12 12 12 12 12 12
16 16 16 16 15 16 16 15 16 15 15 15 15 14 14 13 13 13 13 13 12 12 13 12 13 12 12 12 12 12 12 11 12 11 11 12 12 12 11 11 11 11 11
16 16 15 15 15 16 16 16 15 15 15 15 14 14 14 14 13 13 13 13 13 13 13 12 12 12 12 12 12 12 12 12 12 12 11 11 12 11 11 10 11 11 11
16 15 15 15 17 18 16 15 15 15 15 14 14 14 14 13 13 13 13 12 12 12 12 12 12 12 12 12 12 11 12 11 12 12 11 10 11 11 11 10 11 10 10
18 17 16 15 16 18 17 15 15 15 15 14 14 14 14 14 13 13 13 13 12 12 12 12 12 12 11 11 12 11 12 12 11 11 11 10 9 10 11 11 11 10 10
17 17 17 17 15 17 18 17 15 15 15 14 14 14 14 14 14 14 13 13 13 12 12 12 12 11 11 11 11 11 12 12 11 11 11 11 10 9 10 11 11 11 10
17 17 17 17 16 16 15 16 17 16 15 14 14 14 14 14 13 13 13 13 13 13 12 12 11 11 11 11 11 11 11 11 11 11 11 10 11 11 10 11 11 10 10
16 16 17 17 16 16 16 15 17 17 17 17 16 14 14 14 14 13 13 13 12 13 13 12 11 11 11 11 10 10 10 11 11 11 11 11 11 11 11 9 11 10 10
15 15 16 16 16 16 16 16 17 17 18 17 18 17 16 15 16 16 15 13 13 13 12 12 12 11 11 12 11 11 10 10 11 11 11 11 10 10 10 9 9 9 8
15 15 15 15 15 16 16 16 15 15 14 15 18 18 18 17 15 15 16 15 13 12 13 13 12 12 12 12 12 11 10 11 12 11 10 10 9 9 9 9 9 8 8
13 14 15 15 15 15 15 15 15 15 14 14 14 16 17 17 17 16 14 15 15 13 12 13 12 13 12 12 12 12 11 12 11 10 10 9 8 8 8 8 8 8 8
13 14 14 15 15 15 15 15 14 14 14 14 13 13 13 14 15 17 16 15 15 14 14 14 12 11 12 11 13 12 11 11 11 11 11 10 9 8 7 8 8 8 8
12 12 13 12 13 14 14 14 14 14 13 13 13 13 13 13 13 13 15 15 15 15 14 15 15 11 11 10 11 12 12 12 11 11 10 10 10 9 8 8 7 7 7
Height
1508 1506 1509 1512 1516 1519 1521 1524 1528 1529 1531 1533 1535 1536 1536 1537 1538 1539 1539 1540 1541 1541 1542 1542 1542 1543 1543 1544 1545 1545 1545 1546 1546 1547 1547 1547 1547 1547 1548 1548 1548 1549 1550
1507 1506 1510 1513 1516 1520 1522 1526 1528 1530 1532 1534 1535 1536 1537 1538 1539 1540 1540 1542 1542 1543 1543 1543 1544 1545 1545 1545 1546 1546 1546 1547 1547 1548 1549 1548 1548 1549 1549 1549 1549 1550 1551
1508 1507 1510 1514 1518 1521 1524 1527 1529 1531 1533 1534 1535 1536 1537 1538 1539 1540 1541 1541 1543 1544 1544 1545 1546 1547 1547 1547 1547 1547 1547 1548 1549 1550 1551 1553 1551 1551 1551 1551 1551 1552 1552
1509 1509 1511 1515 1519 1522 1525 1528 1530 1532 1534 1535 1536 1536 1537 1539 1540 1541 1541 1541 1542 1544 1545 1547 1548 1549 1549 1549 1549 1549 1550 1551 1552 1553 1557 1557 1555 1554 1553 1553 1554 1554 1554
1511 1511 1512 1516 1519 1523 1526 1528 1531 1533 1534 1535 1536 1537 1538 1540 1540 1540 1541 1541 1542 1544 1546 1548 1549 1550 1550 1551 1551 1551 1552 1553 1554 1557 1558 1557 1558 1556 1555 1555 1556 1556 1555
1512 1515 1514 1517 1520 1523 1527 1529 1531 1533 1535 1536 1537 1537 1537 1538 1540 1540 1541 1541 1542 1544 1547 1548 1550 1551 1551 1552 1553 1553 1554 1555 1556 1560 1558 1558 1557 1557 1557 1557 1557 1557 1557
1514 1513 1515 1518 1522 1524 1527 1530 1532 1534 1536 1536 1536 1536 1537 1539 1540 1541 1541 1542 1543 1546 1548 1549 1551 1552 1552 1553 1554 1554 1555 1556 1559 1560 1559 1559 1558 1558 1558 1558 1558 1558 1558
1515 1513 1515 1519 1522 1525 1528 1531 1533 1535 1536 1536 1537 1537 1538 1540 1541 1542 1543 1544 1545 1547 1548 1551 1552 1553 1554 1554 1555 1556 1557 1557 1561 1562 1559 1560 1559 1559 1559 1558 1558 1558 1558
1515 1514 1517 1519 1522 1526 1529 1531 1534 1535 1536 1538 1538 1538 1540 1540 1542 1543 1544 1545 1547 1548 1549 1551 1552 1553 1554 1555 1556 1557 1558 1559 1561 1562 1561 1560 1559 1559 1558 1558 1558 1558 1558
1515 1517 1518 1520 1523 1526 1528 1531 1533 1534 1536 1538 1538 1538 1539 1541 1542 1543 1544 1545 1547 1548 1550 1551 1553 1553 1554 1555 1556 1557 1559 1560 1563 1562 1561 1560 1559 1559 1558 1558 1557 1557 1557
1513 1518 1520 1521 1523 1528 1531 1529 1532 1533 1535 1537 1538 1538 1539 1541 1542 1543 1544 1546 1547 1548 1550 1551 1553 1553 1554 1556 1556 1558 1560 1562 1564 1563 1561 1560 1559 1559 1559 1558 1558 1557 1557
1510 1517 1521 1523 1526 1528 1531 1529 1531 1532 1534 1536 1536 1537 1540 1543 1543 1543 1544 1545 1546 1548 1550 1551 1553 1554 1555 1556 1557 1558 1560 1563 1564 1563 1560 1560 1558 1559 1559 1558 1558 1557 1557
1509 1513 1518 1522 1525 1527 1528 1530 1531 1534 1534 1536 1537 1536 1540 1543 1542 1543 1543 1544 1546 1547 1549 1551 1552 1554 1555 1558 1558 1558 1561 1563 1563 1562 1559 1559 1558 1558 1558 1558 1557 1556 1556
1508 1510 1514 1519 1523 1526 1527 1527 1530 1532 1533 1535 1537 1539 1540 1541 1542 1543 1544 1544 1546 1546 1549 1550 1552 1554 1555 1557 1558 1559 1559 1561 1561 1561 1558 1558 1557 1558 1558 1557 1557 1556 1555
1509 1509 1511 1514 1518 1523 1525 1526 1528 1530 1530 1533 1534 1536 1539 1540 1542 1544 1545 1546 1546 1547 1549 1550 1553 1554 1554 1555 1556 1556 1557 1558 1557 1558 1558 1557 1556 1557 1556 1556 1556 1556 1555
1506 1509 1508 1511 1513 1517 1523 1525 1526 1527 1529 1530 1532 1534 1535 1538 1539 1541 1543 1544 1545 1546 1547 1548 1550 1551 1552 1553 1553 1554 1553 1554 1555 1556 1557 1554 1555 1555 1555 1555 1554 1554 1554
1503 1505 1508 1509 1511 1513 1517 1521 1524 1524 1526 1527 1528 1530 1531 1534 1536 1538 1540 1539 1542 1544 1545 1545 1547 1548 1549 1549 1550 1550 1552 1552 1552 1552 1553 1552 1552 1552 1552 1553 1553 1553 1553
1502 1504 1507 1508 1507 1510 1513 1517 1520 1521 1523 1524 1525 1527 1528 1530 1532 1534 1535 1537 1537 1540 1542 1543 1543 1544 1545 1546 1546 1547 1548 1549 1549 1550 1550 1551 1549 1549 1550 1550 1550 1551 1551
1499 1502 1504 1506 1506 1506 1509 1511 1515 1517 1521 1522 1523 1524 1525 1527 1528 1529 1531 1532 1534 1535 1537 1539 1540 1540 1541 1542 1543 1544 1545 1546 1547 1546 1547 1547 1547 1548 1547 1547 1547 1548 1549
1495 1498 1500 1502 1504 1506 1507 1507 1509 1512 1516 1518 1520 1521 1522 1523 1525 1526 1527 1528 1530 1531 1531 1534 1536 1536 1537 1537 1540 1540 1541 1541 1542 1542 1543 1543 1544 1544 1545 1542 1544 1544 1546
1490 1492 1495 1497 1499 1502 1504 1501 1504 1506 1510 1512 1514 1517 1517 1519 1520 1521 1523 1524 1525 1525 1524 1527 1531 1532 1532 1533 1535 1535 1536 1536 1537 1538 1538 1538 1539 1539 1541 1541 1540 1541 1542
1485 1486 1488 1491 1494 1496 1498 1498 1498 1501 1503 1505 1507 1510 1511 1513 1513 1514 1516 1518 1520 1520 1521 1520 1524 1525 1526 1527 1528 1531 1532 1532 1530 1531 1533 1534 1535 1535 1535 1536 1537 1538 1538
1477 1480 1483 1486 1488 1490 1492 1496 1495 1497 1499 1498 1500 1501 1503 1506 1507 1508 1509 1511 1514 1516 1516 1516 1516 1517 1518 1520 1521 1524 1526 1525 1525 1525 1527 1528 1529 1529 1530 1531 1532 1533 1534
1471 1472 1475 1477 1480 1483 1486 1488 1491 1491 1492 1494 1495 1495 1496 1498 1499 1503 1503 1504 1506 1508 1510 1510 1511 1511 1512 1513 1515 1516 1517 1519 1521 1522 1521 1522 1524 1524 1524 1526 1526 1527 1528
1469 1469 1470 1472 1474 1476 1478 1480 1483 1486 1488 1490 1492 1492 1493 1492 1492 1494 1498 1500 1499 1501 1503 1503 1505 1506 1505 1507 1507 1509 1511 1513 1515 1516 1515 1516 1517 1518 1518 1519 1520 1521 1521
1471 1470 1469 1469 1470 1471 1473 1475 1477 1480 1483 1485 1486 1487 1488 1488 1488 1487 1489 1491 1494 1493 1494 1496 1498 1499 1499 1500 1500 1502 1502 1503 1505 1507 1510 1509 1511 1511 1513 1513 1514 1514 1514
Wind_Speed
13 17 18 20 19 17 16 14 12 11 10 9 8 6 4 3 1 1 1 2 3 5 5 5 5 5 4 2 1 2 3 4 4 4 5 5 6 7 7 8 12 5 9
19 17 19 20 19 17 15 13 11 10 8 8 8 7 5 4 2 2 2 1 2 2 4 7 8 7 7 7 5 2 2 1 2 4 6 7 8 8 8 8 6 7 5
18 18 20 20 19 16 15 13 11 9 7 6 7 6 5 4 3 3 4 3 2 4 7 8 8 8 8 8 7 6 7 8 10 13 16 7 11 11 11 10 9 8 5
18 17 18 19 20 16 14 13 11 8 6 6 6 6 5 4 3 3 2 2 5 9 8 8 7 8 7 8 8 7 8 11 13 16 11 8 9 11 11 11 10 9 7
18 17 18 19 20 19 16 14 11 9 8 7 6 7 7 6 5 2 1 2 6 11 10 9 6 4 6 8 7 8 10 12 15 12 8 9 5 10 11 9 9 8 6
17 16 17 19 20 18 15 14 12 10 9 8 7 7 6 6 2 2 4 4 7 13 12 10 6 1 4 6 5 6 9 12 15 7 8 7 5 8 9 9 9 9 10
17 18 18 20 19 17 16 15 13 11 9 8 8 5 5 6 4 5 4 7 10 14 11 9 6 3 1 3 3 6 9 12 12 5 5 4 5 3 4 2 2 3 2
16 15 18 18 17 15 13 13 12 11 9 7 7 3 6 7 6 7 7 8 11 14 12 8 7 4 2 1 4 6 8 13 7 6 1 0 3 5 3 4 3 3 3
14 13 15 16 17 16 14 13 13 12 8 8 8 4 4 7 7 9 9 12 12 11 12 10 8 6 4 3 5 6 7 10 8 6 1 3 2 2 0 2 5 5 3
12 13 14 15 16 16 15 15 14 12 12 9 8 6 6 6 7 9 9 12 15 11 13 11 9 7 4 5 6 5 5 7 5 4 2 4 2 1 3 5 6 5 4
18 13 14 14 14 12 11 14 19 14 12 12 11 9 7 5 7 8 10 10 11 13 11 11 8 6 5 5 6 5 4 4 3 3 5 4 2 4 5 7 7 7 5
18 16 14 14 14 15 13 13 12 13 14 11 13 12 7 8 6 7 9 11 11 12 12 11 9 7 6 3 5 5 5 4 3 3 9 5 5 5 6 7 7 6 5
15 21 19 15 15 15 14 13 13 12 12 12 13 8 10 11 13 12 11 12 12 12 11 11 10 9 7 7 6 3 5 5 4 4 10 6 6 8 7 7 7 5 5
14 16 23 18 16 15 13 13 12 13 12 12 13 13 12 12 12 11 10 11 10 11 8 8 7 7 9 9 7 7 7 6 5 5 11 8 8 9 9 9 7 6 4
12 14 19 19 18 16 15 12 13 13 14 13 14 15 15 14 12 11 12 12 12 11 12 11 11 11 10 9 9 9 9 7 8 8 8 11 11 10 10 10 8 6 5
15 16 17 20 21 21 15 14 12 12 12 14 14 15 18 16 15 15 13 13 13 13 13 13 13 12 11 11 11 10 10 11 10 10 6 13 12 11 11 11 9 7 6
15 14 15 16 19 19 20 18 15 13 13 14 15 17 18 19 18 16 16 16 17 14 14 14 14 13 13 12 12 12 12 11 12 12 11 10 11 13 13 13 10 9 8
16 16 15 16 19 19 20 18 18 16 15 15 15 15 18 19 20 19 18 17 16 17 16 16 15 16 15 15 14 15 15 15 13 12 13 13 13 12 12 14 12 10 10
15 16 18 18 19 20 21 21 19 17 18 16 16 17 17 20 21 21 20 19 19 21 20 18 18 18 17 17 16 17 17 17 16 15 15 15 16 15 15 13 13 12 12
19 18 17 18 20 20 19 23 24 25 20 19 19 19 19 21 22 23 22 21 21 22 24 21 21 21 19 19 17 18 19 20 19 19 19 18 18 17 18 20 15 15 15
19 21 21 21 21 20 20 27 26 30 28 27 26 21 22 23 23 25 26 23 24 25 28 28 24 24 24 20 18 21 21 23 23 22 21 21 21 20 19 21 19 18 17
19 20 23 23 22 23 23 25 30 27 30 33 34 34 33 30 30 30 28 29 28 29 27 28 29 28 27 28 28 20 12 21 27 27 25 24 23 23 21 22 22 20 20
20 20 20 21 23 25 25 24 26 23 20 27 33 37 40 38 35 35 34 34 32 31 32 32 31 34 34 33 33 23 10 13 13 19 27 27 24 25 24 24 24 23 23
15 22 27 27 26 27 28 28 26 26 27 27 28 32 35 38 38 37 38 38 35 34 35 36 35 36 36 37 34 35 30 16 10 9 17 24 24 25 26 24 25 25 25
0 5 12 20 26 28 28 30 25 27 26 24 24 24 27 29 33 34 36 36 38 37 38 39 38 40 42 39 40 38 39 38 29 19 12 17 21 24 27 27 26 26 27
5 4 3 1 7 16 24 28 28 28 22 23 22 23 22 25 28 33 33 34 33 38 38 40 41 42 44 42 43 42 42 42 45 42 31 23 23 25 25 28 27 29 28
Wind_Direction
157 177 168 165 163 163 164 163 168 170 173 168 180 187 190 194 228 289 325 19 19 19 54 77 84 90 83 60 340 280 273 281 303 338 360 25 50 71 88 102 84 119 119
159 173 171 165 164 165 162 165 168 166 175 175 177 187 207 219 225 246 273 283 279 43 108 94 100 94 80 60 42 39 40 41 58 58 63 63 70 80 86 95 103 119 137
157 167 172 167 164 167 166 165 166 165 170 185 195 195 207 222 239 250 257 259 211 149 146 117 97 97 83 55 50 83 87 91 88 78 66 65 71 78 77 81 82 86 91
155 166 171 168 166 168 169 173 173 168 163 171 197 180 191 213 231 237 274 234 172 170 157 154 113 92 69 49 50 80 90 93 93 81 81 77 61 74 78 79 76 74 73
157 158 177 168 166 171 176 175 169 165 169 187 196 197 193 193 201 257 234 180 160 167 158 175 145 98 59 45 59 87 97 95 83 75 90 118 87 72 71 79 60 60 63
156 160 177 166 163 171 168 171 170 174 181 174 182 200 202 189 181 158 148 140 132 163 157 178 166 137 35 39 64 89 99 95 77 82 76 93 124 83 67 77 92 79 76
153 186 178 167 168 171 171 173 180 172 183 188 177 173 142 146 150 148 134 132 151 155 161 171 177 186 8 38 105 108 113 101 94 74 99 110 97 71 62 35 323 323 342
158 184 176 171 173 173 175 182 181 188 195 182 179 158 152 148 149 158 135 137 143 165 172 175 192 207 244 307 153 130 119 102 87 104 52 269 38 24 24 340 336 333 322
167 171 170 174 175 175 179 184 194 205 204 199 191 207 180 157 159 170 158 148 154 174 186 190 202 216 227 211 167 148 131 117 109 121 276 331 31 66 341 320 333 336 326
167 173 161 172 175 181 185 188 199 203 202 203 215 216 188 177 170 179 186 174 175 181 196 203 213 220 226 188 173 160 140 111 107 113 248 268 322 276 279 312 321 327 322
164 177 179 174 183 180 196 218 211 203 204 211 220 229 185 192 186 182 183 187 188 204 197 212 224 226 200 184 180 178 145 85 168 168 240 270 307 286 310 320 326 325 326
179 175 186 183 187 186 189 227 197 206 211 213 229 225 190 184 189 186 201 198 202 202 208 219 220 201 190 198 200 193 131 202 203 184 247 272 285 285 308 321 320 325 328
193 178 179 191 192 191 197 196 195 201 203 205 214 224 188 194 213 203 214 206 211 209 215 219 212 200 170 197 231 204 185 202 216 217 242 269 275 284 300 314 313 316 324
201 204 195 185 194 197 201 195 196 199 203 201 208 206 199 200 212 195 207 207 206 214 201 217 221 202 209 204 208 201 193 207 199 215 268 264 264 280 292 303 305 300 297
212 213 210 193 203 198 202 206 201 204 206 206 206 208 206 208 208 203 205 205 206 212 204 208 207 215 211 212 205 203 203 210 220 231 249 268 261 270 281 291 293 287 274
207 212 217 212 214 189 209 211 210 210 213 208 212 212 208 210 207 206 213 213 215 212 209 210 211 211 214 214 216 212 221 231 239 230 209 266 256 261 270 280 280 276 275
225 216 216 219 224 221 201 219 216 217 213 218 217 218 216 212 214 211 211 232 211 223 216 214 214 214 215 215 215 216 225 236 241 242 228 257 264 250 257 266 269 268 267
224 224 218 219 225 226 224 212 222 221 223 220 221 221 225 221 219 220 218 216 242 216 222 219 213 217 215 222 220 227 231 239 244 241 235 213 254 265 258 257 257 257 256
225 220 218 222 229 233 232 227 220 227 228 227 225 227 228 226 226 228 225 220 217 234 217 220 220 222 221 225 223 231 237 244 246 240 240 235 230 237 264 260 257 253 252
234 230 228 225 224 229 237 240 235 230 227 232 231 231 229 231 230 231 229 228 222 222 232 220 225 224 220 228 223 233 242 244 247 247 246 241 242 242 239 260 256 251 249
236 233 232 231 229 226 227 248 244 243 247 242 238 233 235 235 237 238 239 230 225 222 242 228 224 226 225 217 223 235 238 246 249 249 248 245 243 248 242 246 256 250 248
240 240 235 232 232 231 228 243 256 252 248 247 252 250 247 249 251 254 246 241 234 235 226 243 221 228 233 225 224 233 243 251 249 248 245 241 243 248 243 239 247 244 255
239 236 236 238 235 235 232 230 252 253 251 256 253 254 254 250 246 251 253 247 239 235 237 236 240 230 236 235 231 220 214 227 250 248 241 241 236 241 243 241 241 244 242
236 235 234 229 232 237 235 230 230 238 239 246 255 257 257 257 254 251 251 252 250 244 239 243 238 245 240 239 239 234 226 219 209 223 240 235 233 232 242 240 244 242 249
54 252 250 249 246 242 236 235 232 234 241 246 249 257 257 265 264 255 255 253 255 252 251 250 242 237 246 243 247 241 235 234 234 226 228 235 233 234 237 241 246 247 248
61 62 55 346 255 247 242 242 240 234 239 245 247 249 252 256 260 264 261 262 255 253 253 258 260 248 247 247 248 249 247 241 239 239 238 244 245 245 241 242 243 246 250